[[{"header":{"parameterUnit":"m.s-1","parameterCategory":2,"la1":30.2992,"la2":30.254,"lo1":-89.0895,"lo2":-89.0443,"dy":0.0025,"dx":0.0025,"nx":19,"ny":19,"refTime":"2026-05-10T21:00:00:Z","depth":"0","parameterNumber":2,"parameterNumberName":"U-component_of_CURRENTS"},"data":[0,0,0,-0.0311,-0.0309,-0.0232,-0.0232,-0.0154,-0.0153,0,0,0,0,0,0,0,0,0,0,0,-0.0348,-0.0348,-0.0311,-0.0309,-0.0232,-0.0232,-0.0154,-0.0153,0,0,0,0,0,0,0,0,0,0,0,-0.0348,-0.0348,-0.0348,-0.0309,-0.0233,-0.0232,-0.0154,-0.0205,0,0,0,0,0,0,0,0,0,0,-0.0277,-0.0312,-0.0348,-0.0348,-0.0308,-0.0233,-0.0232,-0.0207,-0.0202,-0.0196,0,-0.0197,0,-0.0172,-0.0149,-0.0149,0,0,0,-0.0302,-0.0317,-0.0295,-0.0348,-0.0308,-0.0233,-0.0265,-0.0204,-0.0198,-0.019,-0.0195,-0.0192,-0.017,-0.0149,-0.0148,-0.0126,-0.0126,0,0,-0.0306,-0.0331,-0.0299,-0.0291,-0.0304,-0.0268,-0.0263,-0.02,-0.0202,-0.0195,-0.019,-0.0169,-0.0148,-0.0148,-0.0126,-0.0126,0,0,0,-0.0323,-0.0335,-0.0314,-0.0295,-0.0279,-0.0265,-0.026,-0.0205,-0.0198,-0.0188,-0.0168,-0.0148,-0.0147,-0.0126,-0.0126,-0.0165,0,0,0,-0.0325,-0.0345,-0.0316,-0.0329,-0.028,-0.0238,-0.0266,-0.0203,-0.0194,-0.0169,-0.0148,-0.0147,-0.0125,-0.0126,-0.0163,-0.0176,0,0,0,-0.0349,-0.0347,-0.0343,-0.0331,-0.0299,-0.0238,-0.0227,-0.02,-0.0182,-0.0149,-0.0146,-0.0125,-0.0126,-0.0162,-0.0174,-0.0184,0,0,0,-0.037,-0.0378,-0.0344,-0.034,-0.03,-0.0263,-0.0227,-0.0193,-0.0168,-0.0148,-0.0126,-0.0126,-0.0162,-0.0172,-0.0183,-0.0206,-0.0214,0,0,-0.0392,-0.0382,-0.0376,-0.0343,-0.0321,-0.0272,-0.0251,-0.0202,-0.0175,-0.0145,-0.0144,-0.0164,-0.0174,-0.0184,-0.0236,-0.0243,0,0,0,-0.0389,-0.039,-0.0376,-0.0352,-0.0314,-0.0283,-0.0232,-0.0214,-0.0185,-0.0163,-0.0164,-0.0168,-0.0174,-0.0185,-0.0191,-0.0201,-0.0128,-0.0128,-0.0128,-0.0469,-0.0426,-0.0416,-0.0367,-0.0343,-0.0289,-0.0268,-0.0236,-0.0206,-0.0206,-0.02,-0.0234,-0.0247,-0.0252,-0.0263,-0.0202,-0.0202,-0.0202,-0.0202,-0.0502,-0.0495,-0.0441,-0.0416,-0.0375,-0.0353,-0.0301,-0.0279,-0.0258,-0.0233,-0.0237,-0.0225,-0.026,-0.027,-0.0205,-0.0205,-0.0204,-0.0204,-0.0204,-0.0552,-0.0544,-0.0514,-0.0474,-0.0445,-0.039,-0.0368,-0.0329,-0.0295,-0.0296,-0.0294,-0.0293,-0.03,-0.0295,-0.0296,-0.0296,-0.0296,-0.0296,-0.0296,-0.0626,-0.0593,-0.058,-0.0532,-0.0506,-0.0469,-0.0406,-0.0384,-0.0356,-0.0334,-0.0334,-0.0318,-0.0262,-0.0257,-0.0298,-0.0297,-0.0297,-0.0297,-0.0297,-0.0694,-0.0676,-0.0653,-0.0628,-0.056,-0.0529,-0.0473,-0.0434,-0.0411,-0.0408,-0.0391,-0.0351,-0.0337,-0.0332,-0.0328,-0.0385,-0.0385,-0.0385,-0.0385,-0.0754,-0.0739,-0.0709,-0.0668,-0.062,-0.0554,-0.0526,-0.048,-0.0449,-0.0442,-0.0433,-0.0425,-0.0421,-0.041,-0.0404,-0.0401,-0.0475,-0.0475,-0.0475,-0.0803,-0.0777,-0.077,-0.0703,-0.0637,-0.0579,-0.0548,-0.0512,-0.0483,-0.0478,-0.0446,-0.0442,-0.0428,-0.042,-0.0399,-0.0389,-0.0382,0,0]},{"header":{"parameterUnit":"m.s-1","parameterCategory":2,"la1":30.2992,"la2":30.254,"lo1":-89.0895,"lo2":-89.0443,"dy":0.0025,"dx":0.0025,"nx":19,"ny":19,"refTime":"2026-05-10T21:00:00:Z","depth":"0","parameterNumber":3,"parameterNumberName":"V-component_of_CURRENTS"},"data":[0,0,0,-0.211,-0.2111,-0.2152,-0.2153,-0.2082,-0.2081,0,0,0,0,0,0,0,0,0,0,0,-0.21,-0.2101,-0.2109,-0.2111,-0.2152,-0.2153,-0.2082,-0.2081,0,0,0,0,0,0,0,0,0,0,0,-0.21,-0.2101,-0.2102,-0.2111,-0.2152,-0.2153,-0.2082,-0.208,0,0,0,0,0,0,0,0,0,0,-0.2054,-0.2034,-0.2101,-0.2102,-0.2111,-0.2152,-0.2153,-0.2081,-0.208,-0.203,0,-0.2051,0,-0.2062,-0.2074,-0.2074,0,0,0,-0.2103,-0.2035,-0.2079,-0.2102,-0.2112,-0.2152,-0.2132,-0.2081,-0.208,-0.2028,-0.205,-0.2048,-0.2061,-0.2073,-0.2073,-0.2039,-0.204,0,0,-0.2101,-0.2069,-0.208,-0.2079,-0.2138,-0.213,-0.2133,-0.2082,-0.2064,-0.205,-0.2047,-0.206,-0.2073,-0.2072,-0.2039,-0.2039,0,0,0,-0.2099,-0.2067,-0.2114,-0.2081,-0.2097,-0.2132,-0.2135,-0.2066,-0.2092,-0.2047,-0.2059,-0.2072,-0.2071,-0.2039,-0.2039,-0.2034,0,0,0,-0.2098,-0.2068,-0.2113,-0.2089,-0.21,-0.209,-0.212,-0.2096,-0.2091,-0.2059,-0.2072,-0.207,-0.2038,-0.2039,-0.2034,-0.2021,0,0,0,-0.2096,-0.2066,-0.2085,-0.2088,-0.2114,-0.2093,-0.2114,-0.2096,-0.2097,-0.2074,-0.207,-0.2038,-0.2039,-0.2033,-0.2021,-0.2013,0,0,0,-0.2043,-0.2064,-0.2084,-0.2089,-0.2114,-0.2131,-0.2115,-0.2107,-0.2089,-0.2072,-0.2038,-0.2039,-0.2033,-0.202,-0.2012,-0.1975,-0.1973,0,0,-0.2045,-0.2063,-0.2066,-0.2086,-0.2098,-0.2123,-0.2111,-0.2087,-0.2087,-0.2043,-0.2043,-0.2034,-0.2021,-0.2012,-0.203,-0.2026,0,0,0,-0.205,-0.2055,-0.2063,-0.2065,-0.2088,-0.2104,-0.209,-0.2094,-0.209,-0.2085,-0.2055,-0.2047,-0.2041,-0.202,-0.2017,-0.2003,-0.2044,-0.2043,-0.2043,-0.1984,-0.2008,-0.2009,-0.2045,-0.2052,-0.2071,-0.2084,-0.2089,-0.2076,-0.2095,-0.2059,-0.207,-0.2049,-0.2046,-0.2034,-0.2083,-0.2083,-0.2083,-0.2083,-0.1975,-0.1976,-0.1982,-0.2005,-0.2023,-0.2021,-0.2054,-0.207,-0.2071,-0.2081,-0.2076,-0.2036,-0.2042,-0.2031,-0.2083,-0.2083,-0.2083,-0.2083,-0.2083,-0.193,-0.1943,-0.196,-0.198,-0.1981,-0.2008,-0.2028,-0.2053,-0.2062,-0.2062,-0.2034,-0.2033,-0.2006,-0.2058,-0.2058,-0.2058,-0.2058,-0.2058,-0.2058,-0.1895,-0.1918,-0.1935,-0.196,-0.1958,-0.1986,-0.2016,-0.2027,-0.2023,-0.2022,-0.2022,-0.2013,-0.2063,-0.2045,-0.2057,-0.2057,-0.2057,-0.2057,-0.2057,-0.1873,-0.1892,-0.192,-0.1925,-0.1946,-0.1966,-0.1992,-0.1998,-0.1991,-0.198,-0.196,-0.2002,-0.1995,-0.1997,-0.1978,-0.1972,-0.1972,-0.1972,-0.1972,-0.1843,-0.1861,-0.1905,-0.1922,-0.1937,-0.1958,-0.1966,-0.1982,-0.1957,-0.1936,-0.1919,-0.1919,-0.1924,-0.1913,-0.1917,-0.1898,-0.1871,-0.1871,-0.1871,-0.1823,-0.1845,-0.1867,-0.1916,-0.1925,-0.196,-0.1965,-0.1962,-0.1917,-0.1867,-0.1908,-0.1913,-0.1916,-0.1923,-0.191,-0.1917,-0.1886,0,0]}],[{"header":{"parameterUnit":"m.s-1","parameterCategory":2,"la1":30.2992,"la2":30.254,"lo1":-89.0895,"lo2":-89.0443,"dy":0.0025,"dx":0.0025,"nx":19,"ny":19,"refTime":"2026-05-10T21:00:00:Z","depth":"2","parameterNumber":2,"parameterNumberName":"U-component_of_CURRENTS"},"data":[0,0,0,0.0243,0.0242,0.0205,0.0205,0.0206,0.0206,0,0,0,0,0,0,0,0,0,0,0,0.0255,0.0255,0.0243,0.0242,0.0205,0.0205,0.0206,0.0206,0,0,0,0,0,0,0,0,0,0,0,0.0256,0.0255,0.0255,0.0242,0.0205,0.0205,0.0206,0.0222,0,0,0,0,0,0,0,0,0,0,0.0251,0.0249,0.0255,0.0255,0.0241,0.0205,0.0205,0.0222,0.0221,0.0236,0,0.0228,0,0.0218,0.0207,0.0207,0,0,0,0.0242,0.025,0.0247,0.0255,0.0241,0.0205,0.0222,0.0221,0.0219,0.0235,0.0228,0.0228,0.0218,0.0207,0.0207,0.0197,0.0197,0,0,0.0244,0.0244,0.0248,0.0246,0.023,0.0223,0.0221,0.0219,0.0215,0.0228,0.0227,0.0218,0.0207,0.0208,0.0197,0.0197,0,0,0,0.0249,0.0245,0.0241,0.0247,0.0237,0.0222,0.0219,0.0215,0.0215,0.0227,0.0218,0.0207,0.0208,0.0197,0.0197,0.0176,0,0,0,0.0251,0.0249,0.0242,0.0241,0.0236,0.0217,0.0214,0.0215,0.0214,0.0218,0.0208,0.0208,0.0198,0.0197,0.0177,0.0169,0,0,0,0.0257,0.0249,0.0246,0.0241,0.0226,0.0217,0.0216,0.0214,0.0209,0.0207,0.0208,0.0198,0.0197,0.0178,0.0171,0.0166,0,0,0,0.0258,0.024,0.0246,0.0224,0.0226,0.0205,0.0216,0.0197,0.0192,0.0208,0.0198,0.0197,0.0179,0.0172,0.0167,0.0129,0.0122,0,0,0.0236,0.0237,0.0226,0.023,0.0202,0.021,0.0185,0.0183,0.019,0.0202,0.0202,0.0177,0.0171,0.0166,0.0096,0.009,0,0,0,0.0219,0.0206,0.02,0.0185,0.018,0.0169,0.0167,0.0171,0.0167,0.0185,0.0171,0.0168,0.0166,0.0145,0.014,0.0194,0.0195,0.0195,0.0195,0.0167,0.0172,0.0149,0.015,0.0141,0.0139,0.0135,0.0141,0.0152,0.0144,0.0146,0.0122,0.0099,0.0095,0.0141,0.0141,0.0141,0.0141,0.0141,0.012,0.01,0.0114,0.0091,0.0096,0.0079,0.01,0.0106,0.0113,0.0123,0.0121,0.0118,0.0088,0.0139,0.0139,0.014,0.014,0.014,0.014,0.0069,0.0063,0.0056,0.004,0.0032,0.0043,0.0053,0.0073,0.0086,0.0088,0.0071,0.0071,0.0117,0.0086,0.0086,0.0086,0.0086,0.0086,0.0086,0.0014,0.0015,-0.0008,-0.0009,-0.001,0.0002,0.0027,0.0038,0.0038,0.0044,0.0044,0.0104,0.0106,0.0114,0.0085,0.0085,0.0085,0.0085,0.0085,-0.0058,-0.005,-0.0075,-0.0079,-0.005,-0.0035,-0.0004,-0.0017,-0.0005,-0.0019,0.0022,0.0024,0.003,0.0033,0.0039,-0.0007,-0.0007,-0.0007,-0.0007,-0.0105,-0.0103,-0.0127,-0.0118,-0.0082,-0.0049,-0.0089,-0.0135,-0.0127,-0.0125,-0.012,-0.0126,-0.0119,-0.0122,-0.0114,-0.0111,-0.0196,-0.0197,-0.0197,-0.0148,-0.0146,-0.0169,-0.0148,-0.0095,-0.0071,-0.0156,-0.0311,-0.0319,-0.0206,-0.0167,-0.0017,-0.001,-0.0006,0.0004,0.001,0.0021,0,0]},{"header":{"parameterUnit":"m.s-1","parameterCategory":2,"la1":30.2992,"la2":30.254,"lo1":-89.0895,"lo2":-89.0443,"dy":0.0025,"dx":0.0025,"nx":19,"ny":19,"refTime":"2026-05-10T21:00:00:Z","depth":"2","parameterNumber":3,"parameterNumberName":"V-component_of_CURRENTS"},"data":[0,0,0,0.0316,0.0315,0.0244,0.0243,0.0241,0.0241,0,0,0,0,0,0,0,0,0,0,0,0.0334,0.0333,0.0316,0.0314,0.0244,0.0243,0.0241,0.0241,0,0,0,0,0,0,0,0,0,0,0,0.0334,0.0333,0.0332,0.0314,0.0244,0.0243,0.0241,0.0274,0,0,0,0,0,0,0,0,0,0,0.0332,0.0326,0.0334,0.0332,0.0314,0.0244,0.0243,0.0275,0.0272,0.0296,0,0.027,0,0.0257,0.0242,0.0242,0,0,0,0.0321,0.0328,0.0316,0.0332,0.0313,0.0244,0.0277,0.0272,0.027,0.0293,0.027,0.0269,0.0257,0.0242,0.0242,0.0231,0.0231,0,0,0.0325,0.032,0.0318,0.0314,0.0277,0.028,0.0275,0.027,0.0257,0.027,0.0269,0.0257,0.0243,0.0243,0.0231,0.0231,0,0,0,0.0332,0.0322,0.0309,0.0315,0.0295,0.0277,0.0272,0.0257,0.0254,0.0269,0.0257,0.0243,0.0243,0.0232,0.0231,0.0204,0,0,0,0.0334,0.0326,0.031,0.0307,0.0294,0.0261,0.0259,0.0254,0.0253,0.0257,0.0243,0.0243,0.0232,0.0231,0.0205,0.0193,0,0,0,0.0341,0.0327,0.0314,0.0307,0.0274,0.0261,0.0256,0.0253,0.0246,0.0242,0.0243,0.0232,0.0232,0.0206,0.0195,0.0163,0,0,0,0.0345,0.0326,0.0313,0.0289,0.0275,0.0257,0.0256,0.0236,0.023,0.0243,0.0232,0.0231,0.0207,0.0196,0.0164,0.0187,0.0181,0,0,0.0333,0.0323,0.0314,0.0302,0.0282,0.0268,0.0245,0.0231,0.023,0.0242,0.0241,0.0205,0.0195,0.0163,0.0151,0.0146,0,0,0,0.0319,0.0305,0.0299,0.0276,0.0266,0.0241,0.0228,0.022,0.0199,0.0221,0.02,0.0194,0.0175,0.0192,0.0188,0.0228,0.0228,0.0228,0.0228,0.028,0.0285,0.0269,0.0265,0.0249,0.0223,0.0202,0.0186,0.0196,0.0173,0.0168,0.012,0.0138,0.0136,0.0164,0.0164,0.0164,0.0164,0.0164,0.0263,0.0252,0.0248,0.0233,0.0213,0.0189,0.0168,0.0155,0.0124,0.0141,0.0123,0.0158,0.013,0.0161,0.0162,0.0162,0.0162,0.0163,0.0163,0.0238,0.0237,0.0225,0.021,0.0176,0.0156,0.0124,0.0106,0.009,0.0072,0.008,0.0081,0.0101,0.0055,0.0054,0.0054,0.0054,0.0054,0.0054,0.0215,0.0213,0.0203,0.0186,0.0173,0.0137,0.0094,0.0077,0.0054,0.0049,0.0049,0.0083,0.0087,0.0094,0.0051,0.0051,0.0052,0.0052,0.0052,0.0183,0.0188,0.0185,0.0178,0.0171,0.0148,0.011,0.007,0.0039,0.0037,0.0036,0.0037,0.0046,0.005,0.0057,0.0006,0.0006,0.0006,0.0006,0.0161,0.0165,0.0166,0.0183,0.0193,0.0163,0.0112,0.0111,0.0104,0.0131,0.0126,0.0171,0.017,0.0189,0.0189,0.02,0.0187,0.0187,0.0188,0.0137,0.0145,0.0141,0.0175,0.0211,0.0174,0.0102,0.0168,0.0299,0.0199,0.0202,0.0009,0.0063,0.0066,0.0086,0.009,0.0104,0,0]}],[{"header":{"parameterUnit":"m.s-1","parameterCategory":2,"la1":30.2992,"la2":30.254,"lo1":-89.0895,"lo2":-89.0443,"dy":0.0025,"dx":0.0025,"nx":19,"ny":19,"refTime":"2026-05-10T21:00:00:Z","depth":"4","parameterNumber":2,"parameterNumberName":"U-component_of_CURRENTS"},"data":[0,0,0,-0.042,-0.0423,-0.0651,-0.0653,-0.0988,-0.099,0,0,0,0,0,0,0,0,0,0,0,-0.0356,-0.0357,-0.042,-0.0424,-0.0651,-0.0653,-0.0987,-0.099,0,0,0,0,0,0,0,0,0,0,0,-0.0356,-0.0357,-0.0358,-0.0424,-0.0651,-0.0653,-0.0987,-0.0814,0,0,0,0,0,0,0,0,0,0,-0.0592,-0.0532,-0.0357,-0.0358,-0.0425,-0.065,-0.0653,-0.0806,-0.0825,-0.0884,0,-0.0906,0,-0.0933,-0.101,-0.1011,0,0,0,-0.0465,-0.0516,-0.0547,-0.0359,-0.0427,-0.065,-0.056,-0.0816,-0.0838,-0.0909,-0.0911,-0.0923,-0.0939,-0.1012,-0.1013,-0.1153,-0.1153,0,0,-0.0453,-0.0436,-0.0531,-0.0559,-0.0471,-0.0553,-0.0567,-0.0829,-0.0864,-0.0912,-0.0931,-0.0944,-0.1014,-0.1016,-0.1154,-0.1153,0,0,0,-0.0389,-0.0427,-0.0453,-0.0546,-0.0572,-0.0558,-0.0575,-0.0854,-0.0853,-0.0934,-0.0948,-0.1015,-0.1019,-0.1155,-0.1154,-0.1016,0,0,0,-0.0383,-0.0386,-0.0447,-0.0445,-0.0565,-0.0713,-0.0593,-0.0836,-0.0865,-0.0946,-0.1016,-0.1022,-0.1155,-0.1154,-0.1022,-0.0969,0,0,0,-0.0349,-0.0384,-0.0397,-0.0442,-0.0516,-0.0709,-0.0727,-0.0843,-0.0872,-0.1011,-0.1023,-0.1156,-0.1154,-0.1026,-0.0977,-0.0914,0,0,0,-0.0341,-0.0371,-0.0397,-0.0439,-0.0513,-0.0627,-0.0726,-0.0854,-0.0967,-0.1017,-0.1155,-0.1154,-0.1028,-0.0982,-0.0919,-0.0879,0,0,0,-0.0365,-0.0375,-0.0392,-0.0419,-0.0485,-0.06,-0.0706,-0.0891,-0.0956,-0.1082,-0.1086,-0.102,-0.0978,-0.0915,-0.0788,0,0,0,0,-0.039,-0.0398,-0.0425,-0.0472,-0.0556,-0.0644,-0.0821,-0.0865,-0.0944,-0.1006,-0.1026,-0.1005,-0.0969,-0.0961,-0.1146,-0.1146,-0.1146,-0.1147,-0.1147,-0.0352,-0.039,-0.0429,-0.0492,-0.0569,-0.0703,-0.0754,-0.084,-0.093,-0.0905,-0.0897,-0.0763,-0.0748,-0.09,-0.09,-0.0899,-0.0898,-0.0898,-0.0898,-0.0335,-0.0341,-0.0412,-0.046,-0.0538,-0.0628,-0.0716,-0.0742,-0.0732,-0.0799,-0.077,-0.0822,-0.0884,-0.0887,-0.0889,-0.089,-0.0892,-0.0892,-0.0893,-0.0272,-0.0288,-0.0324,-0.0389,-0.0445,-0.0546,-0.0531,-0.0578,-0.0599,-0.0551,-0.0554,-0.0676,-0.0683,-0.0524,-0.0524,-0.0523,-0.0523,-0.0522,-0.0522,-0.0182,-0.0232,-0.0241,-0.0315,-0.0332,-0.0355,-0.0401,-0.0371,-0.0399,-0.0399,-0.0501,-0.0638,-0.065,-0.0663,-0.0513,-0.0515,-0.0516,-0.0517,-0.0517,-0.0106,-0.0129,-0.0137,-0.0152,-0.0186,-0.0218,-0.0255,-0.0223,-0.0168,-0.0138,-0.0332,-0.0344,-0.0395,-0.0414,-0.0421,-0.0194,-0.0193,-0.0192,0,-0.0031,-0.0052,-0.0047,-0.0051,-0.0048,-0.0134,-0.0065,-0.0053,-0.0101,-0.0133,-0.0151,-0.0373,-0.0382,-0.0447,-0.0462,-0.0472,0,0,0,0.003,0.0015,0.0043,0.001,-0.0004,-0.0023,-0.0051,-0.004,-0.0129,-0.0037,-0.0164,-0.0171,-0.0315,-0.0488,-0.0596,-0.0611,-0.0638,0,0]},{"header":{"parameterUnit":"m.s-1","parameterCategory":2,"la1":30.2992,"la2":30.254,"lo1":-89.0895,"lo2":-89.0443,"dy":0.0025,"dx":0.0025,"nx":19,"ny":19,"refTime":"2026-05-10T21:00:00:Z","depth":"4","parameterNumber":3,"parameterNumberName":"V-component_of_CURRENTS"},"data":[0,0,0,0.0025,0.0025,0.0071,0.0072,0.0171,0.0172,0,0,0,0,0,0,0,0,0,0,0,0.0031,0.0031,0.0025,0.0025,0.0071,0.0072,0.0171,0.0172,0,0,0,0,0,0,0,0,0,0,0,0.0031,0.0031,0.0032,0.0025,0.0071,0.0072,0.0171,0.013,0,0,0,0,0,0,0,0,0,0,0.0082,0.0104,0.0031,0.0032,0.0025,0.0071,0.0072,0.0128,0.0133,0.0156,0,0.0169,0,0.0156,0.0178,0.0178,0,0,0,0.0043,0.01,0.0077,0.0032,0.0026,0.0071,0.0056,0.0131,0.0136,0.0163,0.017,0.0173,0.0158,0.0179,0.0179,0.0204,0.0203,0,0,0.004,0.0073,0.0074,0.0081,0.0045,0.0054,0.0057,0.0134,0.0164,0.017,0.0175,0.016,0.0179,0.018,0.0204,0.0204,0,0,0,0.0021,0.0072,0.0048,0.0078,0.0074,0.0055,0.0058,0.0162,0.0144,0.0175,0.0161,0.018,0.0181,0.0205,0.0204,0.0185,0,0,0,0.0021,0.0058,0.0047,0.0072,0.0072,0.0119,0.0085,0.014,0.0147,0.016,0.018,0.0182,0.0205,0.0204,0.0187,0.0186,0,0,0,0.0027,0.006,0.0059,0.0073,0.0077,0.0116,0.0106,0.0141,0.0137,0.0178,0.0182,0.0205,0.0204,0.0188,0.0187,0.0188,0,0,0,0.0066,0.0039,0.0061,0.002,0.0077,0.0006,0.0105,0.0118,0.0148,0.018,0.0205,0.0204,0.0188,0.0189,0.0188,0.016,0,0,0,0.0029,0.0037,-0.0003,0.0014,-0.0084,0.0,-0.0045,0.0069,0.0142,0.0187,0.0188,0.0186,0.0188,0.0188,0.0104,0,0,0,0,-0.0021,-0.0037,-0.007,-0.0102,-0.0142,-0.0117,-0.0041,0.0013,0.0122,0.0151,0.0172,0.0173,0.0175,0.0159,0.0199,0.02,0.02,0.02,0.02,0.0006,-0.0063,-0.0131,-0.0198,-0.0218,-0.0183,-0.0143,-0.0043,0.0034,0.0094,0.0147,0.012,0.0101,0.0131,0.0131,0.0131,0.0131,0.0131,0.0131,-0.0063,-0.0113,-0.0158,-0.0231,-0.0231,-0.0219,-0.0167,-0.0078,0.0023,0.0092,0.0095,0.0126,0.0129,0.0129,0.013,0.013,0.013,0.013,0.013,-0.0047,-0.0087,-0.0108,-0.0187,-0.0187,-0.0171,-0.0158,-0.0059,0.0033,0.0051,0.0083,0.0111,0.0127,0.0093,0.0093,0.0093,0.0093,0.0093,0.0093,-0.0011,-0.0062,-0.0081,-0.0145,-0.0154,-0.0139,-0.01,-0.0095,-0.0008,0.006,0.0089,0.0108,0.0109,0.0124,0.0092,0.0092,0.0092,0.0092,0.0092,-0.0038,-0.0012,-0.0059,-0.0076,-0.0151,-0.0167,-0.0157,-0.0124,-0.0101,-0.0072,0.0047,0.0049,0.0059,0.0061,0.0075,0.0028,0.0027,0.0027,0,-0.0016,-0.0027,-0.005,-0.0104,-0.0167,-0.0204,-0.0209,-0.0209,-0.0105,-0.0036,-0.0114,0.0021,0.0023,0.0031,0.0033,0.0047,0,0,0,-0.0032,-0.0028,-0.0039,-0.0094,-0.0177,-0.0204,-0.0204,-0.0166,-0.0085,-0.0143,0.0015,0.0018,-0.0111,0.0091,0.0112,0.0114,0.0139,0,0]}]]